Temperature
20 18 18 19 19 20 20 20 20 19 20 19 18 18 18 19 19 19 19 20 20 20 20 20 20 20 20 20 20 19 19 19 18 18 18 17 17 16 16 16 16 15 15 15
18 18 19 20 21 21 20 20 19 19 20 19 18 18 18 19 18 19 19 19 19 20 20 20 20 20 20 20 19 19 19 19 18 18 18 17 17 16 16 16 16 15 15 15
18 19 21 21 21 21 20 19 19 19 19 19 19 18 18 18 19 19 19 19 19 19 20 20 20 20 20 19 19 19 19 19 18 18 17 17 17 16 16 16 16 15 15 15
19 20 21 21 21 20 19 20 20 20 18 17 18 17 18 17 18 18 18 19 19 19 19 19 19 19 19 19 19 19 19 18 18 18 17 17 17 16 16 16 16 15 15 15
19 20 20 20 21 21 20 21 20 19 18 17 18 17 17 17 17 17 17 18 19 19 19 19 19 19 19 19 19 18 18 18 18 17 17 17 17 16 16 16 16 15 15 15
20 21 21 21 21 21 20 19 19 17 17 17 18 17 17 17 17 17 17 18 19 19 19 19 19 19 19 18 18 18 18 18 17 17 17 17 16 16 16 16 15 15 15 15
20 21 21 21 20 20 19 17 17 17 17 17 18 18 17 18 18 18 17 18 18 18 18 18 18 18 18 18 18 18 18 18 17 17 17 16 16 16 16 15 15 15 15 15
19 19 21 21 20 19 19 18 17 17 17 17 18 17 17 18 19 19 18 18 18 18 18 18 18 18 18 18 18 17 17 17 17 17 17 16 16 16 16 15 15 15 15 15
19 19 21 22 21 20 19 18 17 17 18 17 17 18 18 18 17 17 18 18 18 18 18 18 18 18 17 17 17 17 17 17 16 16 16 16 16 15 15 15 15 15 15 15
19 19 21 21 21 20 19 18 16 17 17 17 18 17 16 17 17 17 17 17 17 18 18 17 17 17 17 17 17 17 16 16 16 16 16 16 15 15 15 15 15 15 14 14
20 19 20 21 21 20 19 19 17 16 17 16 17 17 18 17 17 17 17 17 17 17 17 17 17 17 17 17 17 16 16 16 16 16 15 15 15 15 15 15 15 14 14 14
19 17 18 20 21 21 20 20 18 17 17 16 16 17 19 18 17 17 17 17 18 18 17 17 17 17 17 16 16 16 16 16 15 15 15 15 15 15 15 14 14 14 14 14
20 18 18 19 20 21 21 21 19 17 16 16 16 17 17 17 17 18 17 17 17 17 17 17 17 17 16 16 16 16 16 15 15 15 15 15 15 14 14 14 14 14 14 14
20 18 18 19 19 20 21 22 21 18 17 17 17 17 17 16 16 16 17 17 17 17 17 17 16 16 16 16 16 16 15 15 15 15 15 14 14 14 14 14 14 14 13 13
20 19 20 20 21 22 22 22 22 20 18 18 18 17 17 17 17 17 17 17 17 17 16 16 16 16 16 16 15 15 15 15 15 14 14 14 14 14 14 13 13 13 13 13
19 20 21 21 22 22 22 22 21 21 20 18 18 17 17 17 18 17 17 17 16 16 16 16 16 16 16 15 15 15 15 15 14 14 14 14 14 13 13 13 13 13 13 12
18 19 19 19 21 21 20 21 21 20 20 19 18 17 16 16 16 17 17 17 17 17 16 16 16 16 16 15 15 15 15 14 14 14 14 13 13 13 13 13 13 13 12 12
18 17 16 18 20 20 20 20 21 20 20 19 19 17 17 18 18 18 18 17 17 17 16 16 16 16 15 15 15 15 14 14 14 14 13 13 13 13 12 12 12 12 12 12
17 18 16 16 18 19 20 21 20 20 19 19 18 17 17 18 17 16 17 18 18 17 17 16 16 16 15 15 15 14 14 14 13 13 13 13 13 12 12 12 12 12 12 12
16 16 16 16 18 18 19 20 21 20 19 19 18 17 17 17 14 15 17 17 17 17 17 16 16 15 15 15 14 14 14 13 13 13 13 13 12 12 12 12 12 11 11 11
17 16 16 16 17 17 18 20 21 19 19 20 19 18 17 17 18 19 18 17 17 17 16 16 15 15 15 14 14 14 13 13 13 12 12 12 12 12 12 11 11 11 11 11
16 16 15 15 17 18 19 20 19 19 20 20 20 19 19 19 19 18 18 17 17 16 16 15 15 15 14 14 13 13 13 13 12 12 12 12 12 11 11 11 11 11 10 10
15 16 15 16 17 18 20 21 22 22 21 21 20 20 20 19 18 18 17 17 16 16 15 15 15 14 14 13 13 13 12 12 12 12 11 11 11 11 11 10 10 10 10 10
16 16 15 15 17 18 20 21 21 22 21 21 21 20 20 19 18 17 17 16 16 15 15 15 14 14 13 13 12 12 12 12 11 11 11 11 11 11 10 10 10 10 10 9
17 16 15 15 16 18 19 20 21 21 21 20 20 20 19 19 18 17 17 16 16 15 15 14 14 13 13 12 12 12 11 11 11 11 10 10 10 10 10 10 9 9 9 9
15 16 16 16 17 16 19 20 20 20 20 20 19 19 18 18 18 17 16 16 15 15 14 14 13 13 12 12 12 11 11 11 10 10 10 10 10 9 9 9 9 9 9 8
Wind_Speed
2 4 1 4 5 4 3 4 4 2 3 6 7 5 2 3 5 4 3 3 3 2 2 4 5 5 5 5 5 5 5 4 4 3 2 2 1 0 1 1 1 2 2 3
4 2 5 3 2 2 2 4 4 4 5 6 7 5 2 3 3 4 4 3 3 3 4 5 5 5 5 4 4 3 4 3 3 2 2 2 2 0 0 1 1 1 1 2
4 5 3 3 3 4 3 6 6 6 5 5 7 5 3 2 3 3 3 3 3 3 4 4 5 4 5 4 3 4 3 4 3 3 2 3 3 3 3 2 2 2 1 1
2 3 2 3 3 4 3 6 8 8 6 1 3 2 3 0 3 2 2 3 3 3 4 4 5 5 4 3 4 4 4 4 3 4 4 3 2 1 2 2 2 2 2 2
2 1 3 2 2 4 4 6 7 7 6 4 2 5 3 0 2 0 1 3 3 3 4 4 4 4 4 4 5 5 6 5 4 5 4 4 2 1 1 1 2 2 3 3
2 1 2 3 2 5 7 9 8 6 5 2 2 4 3 4 5 4 3 3 3 3 4 4 4 5 5 5 6 6 6 5 4 5 5 4 3 2 2 3 3 2 3 3
2 2 1 3 5 5 7 7 4 3 2 2 1 2 5 5 6 7 7 5 4 4 5 5 5 5 4 5 5 5 6 5 4 5 4 3 3 3 2 2 2 2 2 3
2 1 2 2 4 5 4 7 7 5 4 2 1 2 4 2 5 6 6 6 5 5 4 5 4 4 4 4 5 5 5 4 3 4 3 3 3 3 2 2 2 1 1 2
5 3 2 3 3 7 5 3 6 6 3 2 1 0 3 3 5 6 6 7 6 5 5 5 4 4 4 4 4 4 4 4 2 2 3 3 3 3 2 2 2 2 2 3
7 3 3 3 3 2 5 7 5 5 4 2 2 3 6 8 7 6 7 7 6 5 5 4 4 3 3 3 3 4 4 3 2 2 2 3 2 2 2 3 3 3 4 4
4 4 1 2 5 6 4 3 4 4 5 5 4 6 7 13 12 11 9 8 8 7 6 4 3 2 3 3 3 3 3 3 3 2 3 3 2 2 3 3 3 3 4 5
3 5 2 5 5 6 6 7 7 5 4 4 5 6 3 12 11 10 9 7 7 6 6 5 4 3 3 2 2 2 2 2 1 1 2 2 2 2 2 2 3 3 4 4
5 5 3 4 4 0 3 5 6 6 5 5 5 5 1 7 9 9 9 8 6 6 6 4 3 3 3 2 2 2 1 1 1 1 2 1 1 1 1 2 3 3 3 4
5 4 6 8 7 5 4 5 6 7 5 5 7 7 5 8 9 9 9 9 7 7 6 5 3 2 2 2 2 2 1 1 1 2 2 1 1 1 1 2 3 3 3 3
5 3 5 6 5 4 6 6 6 6 8 8 9 11 12 14 13 12 11 9 8 7 6 5 4 3 2 2 1 1 0 0 1 2 1 1 1 1 2 3 3 3 3 4
4 3 2 2 3 3 4 6 6 5 5 6 8 7 8 9 9 9 11 11 10 9 7 6 4 3 3 2 2 1 1 0 2 2 0 1 1 1 2 3 3 3 3 3
3 4 3 3 3 2 4 8 8 6 7 10 10 9 9 9 13 14 14 12 11 9 8 7 5 4 3 3 3 2 1 1 2 1 0 1 1 2 3 3 3 3 3 3
6 5 4 1 2 5 9 6 8 8 7 9 9 10 16 14 13 11 11 12 11 10 9 7 6 4 3 2 2 2 2 3 2 1 1 1 1 2 3 3 4 4 3 3
6 7 4 3 3 6 7 4 6 7 5 7 10 11 11 9 7 3 7 10 11 10 8 7 6 5 4 3 3 4 3 3 3 2 2 2 1 2 3 4 5 4 4 4
5 6 6 4 4 6 8 6 3 6 4 6 10 14 13 12 7 8 9 9 9 8 8 7 6 5 5 3 4 5 3 2 1 1 2 2 2 2 3 4 4 4 3 4
3 3 5 5 5 8 8 3 6 5 8 6 12 15 15 12 9 8 11 9 9 8 8 8 7 6 4 4 4 4 2 0 2 2 1 2 2 3 3 3 3 4 4 4
8 6 6 6 4 9 5 6 8 8 3 7 10 12 12 8 7 10 12 11 11 9 7 8 7 5 3 4 5 3 1 2 2 1 1 2 3 3 3 3 4 4 4 4
7 9 7 9 8 6 5 7 5 6 6 6 9 9 11 10 9 10 10 11 10 9 8 6 7 5 3 3 4 4 3 2 1 1 2 3 3 3 3 3 4 4 3 3
3 3 4 3 5 4 3 3 4 6 7 7 9 11 11 11 11 11 10 9 9 8 7 6 7 5 4 3 3 4 3 2 1 1 3 3 3 4 4 3 3 3 4 4
5 2 2 2 3 1 2 3 5 5 7 8 8 9 12 12 11 11 10 10 9 7 6 6 7 6 5 4 4 4 3 2 1 2 3 3 3 4 4 4 4 4 5 5
5 6 6 7 8 7 7 6 6 8 8 10 10 8 9 11 12 11 10 9 9 8 7 6 6 6 5 5 4 4 3 3 2 2 3 3 3 3 3 4 6 7 7 10
Wind_Direction
51 73 196 221 191 181 164 138 126 139 143 105 109 100 80 90 93 93 93 91 88 110 127 106 119 125 119 122 133 142 143 149 128 103 110 107 103 348 1 331 54 58 48 46
49 254 234 241 240 164 139 114 109 80 92 106 103 77 36 83 118 133 135 122 112 90 77 86 92 99 104 112 121 130 145 147 138 134 145 148 142 171 259 318 350 347 22 32
174 235 212 202 221 157 167 165 161 143 93 84 93 37 16 33 71 91 113 124 109 114 115 106 103 97 98 103 120 131 131 132 129 116 91 72 54 30 13 356 335 316 318 357
232 252 164 161 206 164 176 177 152 134 112 107 116 121 301 132 67 69 108 117 125 110 109 109 107 100 100 96 96 94 101 105 105 97 94 109 112 117 269 275 300 311 321 336
233 170 126 124 194 147 156 128 121 115 104 78 63 118 277 149 120 152 126 121 123 127 128 124 120 118 103 94 90 90 90 81 83 90 96 103 102 160 305 345 4 341 330 335
237 231 142 153 126 117 112 85 68 56 72 73 234 134 232 218 192 176 161 132 126 120 112 113 102 94 83 82 86 87 85 73 73 79 79 97 100 80 48 17 12 348 333 328
27 339 354 114 87 61 88 96 74 37 27 242 222 126 229 220 186 170 163 152 138 122 114 109 97 90 86 84 84 83 82 69 64 73 69 81 95 91 73 34 21 8 343 322
135 263 231 156 145 147 140 129 147 166 186 218 37 192 253 204 154 144 144 144 132 122 116 117 119 115 109 101 94 88 85 75 66 69 63 72 86 79 60 44 35 15 325 302
165 227 242 172 142 134 127 138 159 135 126 111 222 68 355 76 115 124 132 134 137 135 128 124 119 119 120 113 106 106 98 78 68 73 68 68 76 76 59 38 29 8 335 331
155 175 232 189 90 49 138 144 109 117 138 154 197 209 204 186 169 154 153 153 151 145 137 129 125 123 119 120 109 99 98 97 68 64 73 74 75 71 55 43 21 359 347 349
138 143 202 145 181 180 143 131 127 129 151 150 187 247 211 187 178 169 169 164 159 157 152 144 139 138 124 107 104 104 95 82 70 71 78 72 63 71 64 46 15 355 351 352
153 125 172 238 243 182 162 169 153 152 195 167 164 253 242 176 171 163 161 162 161 158 155 148 139 129 121 120 116 115 107 102 110 98 86 83 60 64 53 13 349 346 349 349
135 115 91 351 335 299 185 185 165 143 131 154 161 244 335 144 147 155 155 158 155 148 140 133 127 131 139 148 143 138 138 157 159 109 84 69 48 38 5 328 332 340 347 353
121 121 161 187 214 207 203 204 166 139 152 179 197 186 179 161 157 161 159 157 152 147 141 138 143 155 156 156 158 160 186 188 135 112 103 84 289 281 292 305 318 324 331 341
114 162 209 220 223 194 197 202 186 171 175 177 199 182 191 183 175 172 164 156 151 150 150 151 155 160 149 138 150 153 181 159 115 108 103 262 284 311 328 328 315 314 320 327
118 171 199 283 251 211 209 204 182 180 171 165 154 196 198 174 157 157 162 163 163 164 163 160 153 142 144 154 154 129 108 102 108 111 179 288 354 360 334 317 315 315 313 315
127 141 133 261 299 46 246 217 191 188 179 161 182 203 165 160 171 176 175 173 173 170 165 164 162 164 166 173 159 138 129 95 97 94 359 336 343 333 312 319 330 313 304 307
139 122 132 180 70 230 245 248 191 179 196 187 176 172 172 176 179 179 173 172 173 172 167 166 164 160 158 147 129 110 83 75 75 51 345 323 327 316 319 326 316 304 299 295
148 138 127 137 202 269 289 249 171 164 220 194 169 166 162 134 113 173 190 174 173 172 167 165 163 153 139 129 122 102 78 67 59 33 350 321 320 325 325 316 305 299 300 297
95 109 126 138 179 236 249 250 168 117 233 216 168 159 152 135 159 213 192 167 160 156 155 153 145 129 128 134 117 100 89 70 25 296 301 311 312 318 309 297 296 297 295 288
112 101 146 169 211 259 253 225 112 151 231 200 171 163 163 174 190 175 157 157 154 150 149 144 138 137 151 149 123 113 103 271 265 269 303 326 318 306 293 294 300 303 304 308
173 170 183 159 194 252 229 148 177 210 198 159 167 169 169 162 138 142 151 153 149 145 143 143 141 146 157 148 133 133 199 256 267 291 319 315 310 315 327 316 312 314 313 311
194 191 185 186 210 244 217 195 194 159 147 156 162 164 151 144 150 151 154 154 154 152 152 150 149 152 165 167 151 162 228 247 256 308 307 304 306 306 305 302 309 317 318 309
271 149 142 212 254 250 206 155 146 148 150 152 152 150 149 153 155 154 155 157 158 157 158 154 152 159 183 196 185 194 219 217 197 269 286 295 298 300 304 301 297 301 301 299
237 151 136 236 264 326 286 202 163 137 129 132 139 150 158 153 156 162 164 166 166 164 164 163 167 177 194 201 210 221 221 194 214 259 276 285 285 284 294 295 283 282 271 268
213 181 178 217 215 191 217 213 171 152 156 156 149 149 156 158 162 163 168 171 168 168 167 168 174 183 195 199 214 229 225 200 206 250 269 275 282 284 285 294 307 297 284 292
Height
1507 1512 1516 1514 1513 1513 1516 1520 1524 1523 1519 1522 1528 1530 1529 1528 1528 1529 1529 1530 1531 1531 1533 1534 1536 1537 1538 1539 1539 1539 1540 1540 1539 1539 1539 1539 1538 1538 1537 1536 1535 1533 1532 1531
1513 1515 1510 1508 1509 1511 1515 1521 1526 1525 1521 1525 1531 1533 1531 1530 1530 1530 1531 1531 1531 1532 1533 1535 1536 1537 1538 1538 1539 1539 1540 1540 1539 1539 1539 1538 1538 1537 1537 1536 1535 1534 1533 1531
1515 1512 1507 1509 1510 1514 1517 1521 1524 1526 1525 1527 1532 1539 1536 1533 1532 1532 1532 1532 1532 1532 1533 1535 1536 1537 1538 1538 1538 1539 1539 1539 1539 1539 1538 1538 1538 1538 1537 1536 1535 1534 1533 1532
1511 1507 1507 1510 1511 1512 1520 1514 1517 1522 1532 1540 1537 1552 1542 1537 1535 1533 1532 1532 1532 1533 1534 1535 1536 1537 1537 1538 1538 1538 1539 1539 1538 1538 1538 1537 1537 1537 1536 1536 1535 1534 1533 1532
1511 1507 1508 1511 1510 1509 1515 1513 1517 1523 1533 1541 1541 1550 1548 1538 1538 1535 1533 1532 1532 1533 1534 1535 1536 1537 1537 1538 1538 1538 1538 1538 1538 1538 1537 1537 1537 1536 1536 1536 1535 1534 1533 1532
1507 1505 1506 1508 1507 1508 1512 1518 1524 1531 1539 1551 1544 1549 1549 1541 1536 1534 1533 1533 1533 1534 1535 1536 1536 1537 1537 1538 1538 1538 1538 1537 1537 1537 1537 1537 1536 1536 1535 1535 1534 1534 1533 1532
1512 1508 1506 1506 1510 1513 1516 1531 1547 1552 1556 1555 1541 1545 1545 1532 1529 1530 1531 1532 1533 1534 1534 1535 1536 1536 1537 1537 1537 1537 1537 1537 1537 1537 1536 1536 1536 1536 1535 1534 1534 1533 1532 1531
1521 1521 1508 1506 1510 1516 1519 1527 1547 1557 1558 1553 1543 1547 1539 1528 1528 1529 1530 1532 1533 1534 1534 1535 1536 1536 1537 1537 1537 1537 1537 1536 1536 1536 1536 1536 1536 1535 1535 1534 1533 1532 1532 1531
1520 1520 1506 1504 1505 1510 1520 1526 1527 1540 1545 1554 1550 1543 1536 1530 1530 1530 1531 1531 1532 1533 1534 1535 1536 1536 1537 1537 1537 1537 1536 1536 1536 1536 1536 1535 1535 1535 1534 1534 1533 1532 1531 1530
1510 1518 1509 1505 1507 1509 1512 1519 1531 1540 1552 1557 1551 1548 1545 1535 1532 1531 1531 1531 1531 1533 1534 1535 1536 1536 1537 1537 1537 1537 1536 1536 1536 1536 1535 1535 1535 1534 1534 1533 1532 1531 1530 1529
1504 1514 1514 1509 1511 1513 1516 1520 1526 1536 1540 1553 1558 1549 1524 1525 1526 1527 1528 1529 1530 1532 1533 1534 1535 1536 1536 1537 1536 1536 1536 1536 1535 1535 1535 1534 1534 1534 1533 1532 1531 1530 1529 1528
1502 1513 1520 1512 1502 1500 1506 1512 1520 1535 1539 1540 1546 1542 1516 1518 1521 1524 1526 1528 1530 1531 1532 1534 1535 1536 1536 1536 1536 1536 1535 1535 1535 1534 1534 1533 1533 1533 1532 1531 1530 1529 1528 1527
1499 1511 1524 1523 1516 1507 1506 1506 1510 1519 1530 1539 1545 1537 1517 1518 1521 1523 1525 1527 1529 1530 1532 1533 1534 1535 1535 1535 1535 1535 1535 1534 1534 1534 1533 1533 1532 1531 1531 1530 1529 1528 1526 1525
1495 1507 1517 1523 1517 1507 1505 1503 1504 1514 1529 1533 1531 1527 1521 1520 1520 1522 1524 1526 1528 1529 1531 1532 1533 1533 1534 1534 1534 1534 1534 1533 1533 1533 1532 1532 1531 1530 1529 1528 1527 1526 1525 1524
1494 1505 1503 1502 1498 1498 1499 1499 1500 1505 1512 1520 1519 1519 1516 1515 1516 1519 1521 1524 1526 1528 1529 1530 1531 1532 1532 1532 1532 1532 1532 1532 1532 1531 1531 1530 1529 1529 1528 1526 1525 1524 1523 1522
1494 1501 1500 1501 1495 1496 1498 1497 1498 1500 1503 1508 1511 1514 1508 1510 1514 1517 1520 1522 1524 1526 1527 1528 1529 1530 1530 1531 1531 1531 1531 1530 1530 1529 1529 1528 1527 1526 1525 1524 1523 1522 1521 1519
1497 1501 1507 1511 1500 1499 1507 1497 1496 1497 1497 1501 1509 1507 1505 1510 1511 1513 1516 1518 1520 1522 1524 1526 1527 1528 1529 1529 1529 1529 1529 1529 1528 1528 1527 1526 1525 1524 1523 1522 1521 1520 1518 1517
1495 1502 1511 1513 1508 1517 1501 1486 1486 1490 1491 1491 1493 1496 1499 1501 1505 1509 1511 1514 1517 1520 1522 1524 1525 1526 1527 1528 1528 1528 1528 1527 1526 1526 1525 1524 1523 1522 1521 1519 1518 1517 1516 1514
1488 1498 1510 1517 1517 1509 1495 1484 1484 1490 1492 1488 1490 1493 1497 1500 1506 1510 1511 1512 1514 1517 1519 1522 1523 1525 1525 1526 1526 1526 1526 1525 1524 1523 1522 1521 1520 1519 1518 1516 1515 1514 1513 1511
1489 1493 1506 1515 1514 1515 1495 1480 1478 1485 1494 1486 1486 1490 1495 1500 1509 1507 1507 1510 1513 1515 1518 1520 1522 1523 1524 1524 1524 1524 1524 1523 1522 1521 1520 1519 1518 1516 1515 1514 1512 1511 1509 1507
1495 1500 1506 1511 1512 1502 1483 1478 1480 1498 1492 1481 1483 1486 1490 1493 1495 1498 1503 1507 1510 1513 1515 1518 1519 1521 1521 1522 1522 1522 1521 1521 1520 1519 1518 1517 1515 1514 1512 1511 1509 1507 1505 1504
1494 1500 1505 1509 1510 1502 1476 1478 1482 1481 1476 1478 1481 1483 1487 1490 1494 1497 1500 1504 1507 1510 1513 1515 1517 1518 1519 1520 1520 1519 1519 1518 1518 1517 1515 1514 1513 1511 1509 1507 1506 1504 1502 1499
1486 1485 1487 1490 1488 1476 1472 1472 1473 1474 1475 1477 1479 1483 1486 1489 1492 1495 1499 1502 1505 1508 1510 1513 1514 1516 1517 1517 1517 1517 1516 1516 1515 1514 1512 1511 1509 1508 1506 1504 1502 1500 1498 1495
1478 1476 1480 1481 1476 1472 1471 1471 1472 1473 1474 1476 1479 1482 1485 1488 1491 1494 1497 1500 1503 1505 1508 1510 1511 1513 1514 1514 1514 1514 1514 1513 1512 1511 1509 1508 1506 1504 1503 1501 1498 1496 1493 1491
1475 1475 1478 1479 1474 1472 1471 1471 1472 1473 1475 1477 1479 1481 1484 1486 1489 1492 1495 1497 1500 1503 1505 1507 1508 1509 1510 1511 1511 1511 1511 1510 1508 1507 1506 1504 1502 1500 1498 1497 1495 1492 1490 1488
1470 1472 1475 1475 1469 1470 1469 1470 1471 1472 1473 1475 1478 1480 1483 1485 1487 1489 1492 1495 1497 1500 1502 1504 1505 1507 1507 1508 1508 1508 1507 1506 1505 1503 1502 1500 1498 1496 1494 1492 1490 1487 1485 1483